sat.trackr.live / text

‹ back to catalog

STARLINK-5411

NORAD 54865 · 2022-177AX

PAYLOAD ACTIVE UNKNOWN

§ Identity

Operator
Country
US
Launch date
2022-12-28
Launch site
AFETR
Launch vehicle
Mass (kg)
RCS (m²)

Purposes: comms

External: N2YO · Heavens-Above · Gunter

§ Orbital elements

Epoch: 2026-09-20T22:49:39.818784Z

Period
94.27 min
Inclination
43.0021°
Eccentricity
0.0001915
Mean motion
15.27576079 rev/d
Perigee alt
481.7 km
Apogee alt
484.4 km
Semi-major
6,861.2 km
B*
1.6324e-5
RAAN
98.8183°
Arg perigee
254.1751°
Mean anomaly
105.8889°
Rev number
20,695

§ Raw data

STARLINK-54111 54865U 22177AX  26263.95115531  .00000187  00000+0  16324-4 0  99912 54865  43.0021  98.8183 0001915 254.1751 105.8889 15.27576079206958

JSON: /api/v1/satellites/54865 · /tle

For live sub-satellite position, see the globe view (requires WebGL).

§ Visibility from observer

Set your observer location to see the next 7 days of passes ≥ 10°. The values pass through the URL so the page stays shareable.

No JS? Fill the form by hand. The geolocation button needs JavaScript.